Flag for Germany Weather past 2 weeks in Langenfeld (Rheinland), North Rhine-Westphalia, Germany

Now
63 °F

Clear.


Feels Like: 63 °F
Forecast: 62 / 85 °F
Wind: 3 mph from Northeast

Location: Duesseldorf

Current Time: Jul 7, 2015 at 1:12:14 AM

Latest Report: Jul 7, 2015 at 12:50 AM


Visibility: 10 mi

Pressure: 30.04 "Hg

Humidity: 73%

Dew point: 54 °F

Location of Langenfeld (Rheinland)Location

Historic Weather in Langenfeld (Rheinland) — Graph

°F

Langenfeld (Rheinland) temperature yesterday

Maximum temperature yesterday: 77 °F (at 3:50 PM)
Minimum temperature yesterday: 59 °F (at 6:20 AM)
Average temperature yesterday: 69 °F

Past Weeks' High & Low Weather Summary

 TemperatureHumidityPressure
High99 °F (Jul 2, 3:20 PM)100% (Jun 22, 8:50 AM)30.24 "Hg (Jun 22, 8:50 AM)
Low50 °F (Jun 22, 10:20 PM)23% (Jul 1, 5:20 PM)29.71 "Hg (Jun 22, 5:50 PM)
Average70 °F63%30.07 "Hg
* Reported Jun 21 11:20 PM — Jul 6 11:50 PM, Langenfeld (Rheinland), Weather by CustomWeather, © 2015

Note: Actual official high and low records may vary slightly from our data, if they occured in-between our weather recording intervals... More about our weather records

Advertising

Langenfeld (Rheinland) weather history for previous 24 hours

 ConditionsComfort  
Time TempWeatherWind HumidityBarometerVisibility
11:50 PM
Mon, Jul 6
64 °FClear.3 mph68%30.04 "Hg10 mi
11:20 PM66 °FClear.3 mph60%30.07 "Hg10 mi
10:50 PM66 °FClear.5 mph60%30.07 "Hg10 mi
10:20 PM68 °FSunny.2 mph60%30.07 "Hg10 mi
9:50 PM72 °FSunny.2 mph50%30.07 "Hg10 mi
9:20 PM73 °FSunny.1 mph50%30.07 "Hg10 mi
8:50 PM75 °FSunny.2 mph41%30.07 "Hg10 mi
8:20 PM77 °FSunny.6 mph36%30.07 "Hg10 mi
7:50 PM77 °FPassing clouds.5 mph36%30.07 "HgN/A
7:20 PM77 °FPassing clouds.5 mph36%30.09 "HgN/A
6:50 PM77 °FSunny.6 mph36%30.09 "Hg10 mi
6:20 PM77 °FPassing clouds.5 mph39%30.09 "HgN/A
5:50 PM77 °FPassing clouds.6 mph36%30.09 "HgN/A
5:20 PM77 °FPassing clouds.5 mph36%30.12 "HgN/A
4:50 PM77 °FSunny.8 mph36%30.12 "Hg10 mi
4:20 PM77 °FPassing clouds.8 mph34%30.12 "HgN/A
3:50 PM77 °FPassing clouds.8 mph36%30.12 "HgN/A
3:20 PM75 °FSunny.7 mph41%30.15 "Hg10 mi
2:50 PM73 °FSunny.10 mph41%30.15 "Hg10 mi
2:20 PM75 °FSunny.15 mph41%30.15 "Hg10 mi
1:50 PM73 °FSunny.13 mph41%30.15 "Hg10 mi
1:20 PM73 °FSunny.14 mph41%30.15 "Hg10 mi
12:50 PM73 °FSunny.10 mph44%30.15 "Hg10 mi
12:20 PM72 °FPassing clouds.13 mph47%30.15 "HgN/A
11:50 AM70 °FPassing clouds.9 mph53%30.18 "HgN/A
11:20 AM68 °FPassing clouds.10 mph60%30.18 "HgN/A
10:50 AM68 °FPassing clouds.9 mph69%30.18 "HgN/A
10:20 AM66 °FPassing clouds.7 mph73%30.18 "HgN/A
9:50 AM64 °FPassing clouds.6 mph73%30.18 "HgN/A
9:20 AM63 °FScattered clouds.6 mph77%30.18 "HgN/A
8:50 AM63 °FPartly sunny.6 mph77%30.18 "HgN/A
8:20 AM61 °FScattered clouds.8 mph77%30.18 "HgN/A
7:50 AM61 °FPassing clouds.8 mph77%30.15 "HgN/A
7:20 AM61 °FPassing clouds.9 mph77%30.15 "HgN/A
6:50 AM61 °FPassing clouds.8 mph83%30.15 "HgN/A
6:20 AM59 °FPassing clouds.6 mph82%30.15 "HgN/A
5:20 AM61 °FPassing clouds.7 mph77%30.15 "HgN/A
4:50 AM61 °FPassing clouds.7 mph83%30.15 "HgN/A
4:20 AM63 °FPassing clouds.7 mph77%30.12 "HgN/A
3:50 AM63 °FPassing clouds.7 mph83%30.12 "HgN/A
3:20 AM64 °FPassing clouds.8 mph78%30.12 "HgN/A
2:50 AM64 °FPassing clouds.5 mph83%30.12 "HgN/A
2:20 AM64 °FPassing clouds.5 mph83%30.09 "HgN/A
1:50 AM64 °FPassing clouds.6 mph78%30.09 "HgN/A
1:20 AM64 °FPassing clouds.5 mph83%30.09 "HgN/A
Weather by CustomWeather, © 2015

See weather overviewHow to use our weather pages